Weather History for ETNL - November, 2012

Change the Weather History Date:

Tuesday, November 27, 2012

  Actual Average Record
Temperature  
Mean Temperature 40 °F -  
Max Temperature 46 °F - - ()
Min Temperature 35 °F - - ()
Degree Days  
Heating Degree Days 24    
Moisture  
Dew Point 43 °F    
Average Humidity 99    
Maximum Humidity 100    
Minimum Humidity 93    
Precipitation  
Precipitation 0.00 in - - ()
Sea Level Pressure  
Sea Level Pressure 29.64 in    
Wind  
Wind Speed 4 mph ()    
Max Wind Speed 6 mph    
Max Gust Speed -    
Visibility 2.6 miles    
Events Fog , Rain    
T = Trace of Precipitation, MM = Missing Value Source: Averaged Metar Reports

Daily Weather History Graph

Daily Weather History Graph

Search for Another Location

Airport or City:

Trip Planner

Search our weather history database for the weather conditions in past years. The results will help you decide how hot, cold, wet, or windy it might be!

Date:

Astronomy

Nov. 27, 2012 Rise Set
Actual Time 8:00 AM CET 3:56 PM CET
Civil Twilight 7:18 AM CET 4:38 PM CET
Nautical Twilight 6:33 AM CET 5:22 PM CET
Astronomical Twilight 5:51 AM CET 6:05 PM CET
Moon 3:20 PM CET (11/27) 6:44 AM CET (11/27)
Length of Visible Light 9h 19m
Length of Day
7h 56m
Waxing Gibbous, 99% of the Moon is Illuminated
Nov 27
Waxing Gibbous
Nov 28
Full
Dec 6
Last Quarter
Dec 13
New
Dec 20
First Quarter

Hourly Weather History & Observations

Time (CET) Temp. Windchill Dew Point Humidity Pressure Visibility Wind Dir Wind Speed Gust Speed Precip Events Conditions
12:20 AM 42.8 °F 40.1 °F 42.8 °F 100% 29.62 in 3.7 mi South 4.6 mph - N/A Rain Light Rain
1:20 AM 44.6 °F 43.1 °F 44.6 °F 100% 29.59 in 2.5 mi SSW 3.5 mph - N/A Rain Light Rain
2:20 AM 44.6 °F 43.1 °F 44.6 °F 100% 29.59 in 2.8 mi SSW 3.5 mph - N/A   Mostly Cloudy
3:00 AM 44.6 °F 43.1 °F 44.6 °F 100% 29.59 in 1.9 mi SW 3.5 mph - N/A   Mostly Cloudy
3:20 AM 44.6 °F 43.1 °F 44.6 °F 100% 29.59 in 1.9 mi SW 3.5 mph - N/A   Mostly Cloudy
4:20 AM 44.6 °F 43.1 °F 44.6 °F 100% 29.59 in 1.1 mi SW 3.5 mph - N/A   Mostly Cloudy
5:08 AM 44.6 °F 43.1 °F 44.6 °F 100% 29.59 in 0.5 mi SSW 3.5 mph - N/A Fog Fog
5:20 AM 44.6 °F 43.1 °F 44.6 °F 100% 29.59 in 0.5 mi SSW 3.5 mph - N/A Fog Fog
5:41 AM 44.6 °F 42.2 °F 44.6 °F 100% 29.59 in 0.9 mi WSW 4.6 mph - N/A   Overcast
6:01 AM 44.6 °F 41.4 °F 44.6 °F 100% 29.59 in 1.2 mi WSW 5.8 mph - N/A   Mostly Cloudy
6:20 AM 44.6 °F 43.1 °F 44.6 °F 100% 29.59 in 1.2 mi SW 3.5 mph - N/A Rain Light Rain
7:20 AM 44.6 °F 42.2 °F 44.6 °F 100% 29.59 in 1.6 mi SW 4.6 mph - N/A Rain Light Rain
8:20 AM 46.4 °F 43.5 °F 46.4 °F 100% 29.62 in 1.5 mi SW 5.8 mph - N/A   Mostly Cloudy
8:52 AM 44.6 °F 42.2 °F 44.6 °F 100% 29.62 in 1.5 mi SW 4.6 mph - N/A   Mostly Cloudy
9:14 AM 44.6 °F 42.2 °F 44.6 °F 100% 29.65 in 1.9 mi SW 4.6 mph - N/A   Mostly Cloudy
9:20 AM 44.6 °F 41.4 °F 44.6 °F 100% 29.65 in 1.9 mi SW 5.8 mph - N/A   Mostly Cloudy
9:43 AM 44.6 °F 41.4 °F 44.6 °F 100% 29.65 in 2.5 mi SW 5.8 mph - N/A   Mostly Cloudy
9:57 AM 44.6 °F 42.2 °F 44.6 °F 100% 29.65 in 3.1 mi SW 4.6 mph - N/A   Mostly Cloudy
10:20 AM 44.6 °F 41.4 °F 44.6 °F 100% 29.65 in 3.7 mi WSW 5.8 mph - N/A   Mostly Cloudy
11:20 AM 44.6 °F 42.2 °F 44.6 °F 100% 29.65 in 5.0 mi SW 4.6 mph - N/A   Mostly Cloudy
12:20 PM 46.4 °F 44.3 °F 44.6 °F 93% 29.65 in 5.6 mi SW 4.6 mph - N/A   Mostly Cloudy
1:20 PM 46.4 °F 43.5 °F 44.6 °F 93% 29.65 in 5.6 mi SW 5.8 mph - N/A   Mostly Cloudy
2:20 PM 46.4 °F 43.5 °F 44.6 °F 93% 29.68 in 5.6 mi SW 5.8 mph - N/A   Mostly Cloudy
3:20 PM 44.6 °F - 44.6 °F 100% 29.68 in 6.2 mi WSW 2.3 mph - N/A   Mostly Cloudy
4:20 PM 42.8 °F 41.1 °F 42.8 °F 100% 29.68 in 4.3 mi South 3.5 mph - N/A Fog Fog
5:20 PM 41.0 °F 39.0 °F 41.0 °F 100% 29.68 in 4.3 mi SSW 3.5 mph - N/A Fog Fog
6:20 PM 41.0 °F 38.0 °F 41.0 °F 100% 29.68 in 4.3 mi SSW 4.6 mph - N/A Fog Fog
7:20 PM 41.0 °F 39.0 °F 41.0 °F 100% 29.68 in 3.1 mi SSW 3.5 mph - N/A Fog Fog
8:20 PM 41.0 °F 39.0 °F 41.0 °F 100% 29.71 in 3.7 mi SSW 3.5 mph - N/A   Mostly Cloudy
9:20 PM 41.0 °F - 41.0 °F 100% 29.71 in 2.5 mi South 2.3 mph - N/A Fog Fog
9:39 PM 39.2 °F - 39.2 °F 100% 29.71 in 0.6 mi SSW 1.2 mph - N/A Fog Fog
9:50 PM 37.4 °F - 37.4 °F 100% 29.71 in 0.2 mi Calm Calm - N/A Fog Fog
10:20 PM 35.6 °F - 35.6 °F 100% 29.71 in 0.2 mi WNW 2.3 mph - N/A Fog Fog
11:20 PM 35.6 °F - 35.6 °F 100% 29.71 in 0.2 mi WSW 2.3 mph - N/A Fog Fog